VOE8SP GMAD-LFRS

Flight info

Callsign VOE8SP
Flight time N/A
Altitude 36000
Route MOGBA UH300 ESS UR724 OSLAD DCT OBOLO DCT VFA DCT ALAGU DCT ELVAR DCT BARDI/N0441F380 DCT ZMR DCT NUBLO DCT RONSI DCT DELOG DCT YURZI UL14 TEPRA DCT EPIXO
Aircraft A319/M-SDE3FGHIRWY/LB1

Departure

Time 2026-04-22 16:01
Airport Al Massira Airport (GMAD)

Arrival

Time N/A
Airport Nantes Atlantique Airport (LFRS)
Time Latitude Longitude Altitude Speed Heading
2026-04-22 15:23 30.32883 -9.40997 232 ft 0 kts
2026-04-22 15:31 30.32882 -9.40997 232 ft 0 kts
2026-04-22 15:46 30.32881 -9.40997 231 ft 0 kts
2026-04-22 15:50 30.32878 -9.40997 231 ft 3 kts
2026-04-22 15:50 30.32852 -9.40999 231 ft 4 kts
2026-04-22 15:50 30.32826 -9.41005 231 ft 4 kts 25°
2026-04-22 15:50 30.32811 -9.41015 232 ft 4 kts 65°
2026-04-22 15:51 30.32808 -9.41025 235 ft 3 kts 91°
2026-04-22 15:54 30.32808 -9.41024 231 ft 1 kts 91°
2026-04-22 15:54 30.32808 -9.40991 232 ft 8 kts 91°
2026-04-22 15:54 30.32806 -9.40918 231 ft 9 kts 91°
2026-04-22 15:55 30.32804 -9.40835 231 ft 11 kts 91°
2026-04-22 15:55 30.32802 -9.40750 231 ft 11 kts 91°
2026-04-22 15:55 30.32772 -9.40674 231 ft 11 kts 147°
2026-04-22 15:55 30.32690 -9.40665 231 ft 13 kts 181°
2026-04-22 15:56 30.32599 -9.40668 231 ft 13 kts 181°
2026-04-22 15:56 30.32506 -9.40670 231 ft 14 kts 181°
2026-04-22 15:56 30.32439 -9.40613 231 ft 13 kts 102°
2026-04-22 15:56 30.32435 -9.40506 231 ft 13 kts 92°
2026-04-22 15:57 30.32433 -9.40401 231 ft 13 kts 92°
2026-04-22 15:57 30.32430 -9.40289 231 ft 16 kts 91°
2026-04-22 15:57 30.32427 -9.40161 231 ft 16 kts 91°
2026-04-22 15:57 30.32424 -9.40036 231 ft 16 kts 91°
2026-04-22 15:58 30.32421 -9.39911 231 ft 15 kts 91°
2026-04-22 15:58 30.32418 -9.39787 231 ft 15 kts 91°
2026-04-22 15:58 30.32415 -9.39664 231 ft 16 kts 91°
2026-04-22 15:58 30.32411 -9.39544 231 ft 12 kts 95°
2026-04-22 15:59 30.32350 -9.39496 231 ft 12 kts 182°
2026-04-22 15:59 30.32269 -9.39507 233 ft 12 kts 202°
2026-04-22 15:59 30.32225 -9.39576 231 ft 7 kts 264°
2026-04-22 15:59 30.32226 -9.39585 231 ft 0 kts 272°
2026-04-22 16:00 30.32227 -9.39649 231 ft 31 kts 271°
2026-04-22 16:00 30.32240 -9.40182 231 ft 99 kts 271°
2026-04-22 16:00 30.32261 -9.41211 240 ft 152 kts 270°
2026-04-22 16:00 30.32308 -9.42449 757 ft 154 kts 274°
2026-04-22 16:01 30.32370 -9.43675 1361 ft 153 kts 274°
2026-04-22 16:01 30.32434 -9.44918 1991 ft 156 kts 274°
2026-04-22 16:01 30.32501 -9.46281 2291 ft 181 kts 273°
2026-04-22 16:01 30.32568 -9.47817 2602 ft 207 kts 272°
2026-04-22 16:02 30.32507 -9.49580 2961 ft 233 kts 253°
2026-04-22 16:02 30.31621 -9.51253 3500 ft 250 kts 230°
2026-04-22 16:02 30.30403 -9.52738 4358 ft 257 kts 223°
2026-04-22 16:02 30.29109 -9.54149 5238 ft 259 kts 220°
2026-04-22 16:03 30.27817 -9.55635 5971 ft 268 kts 230°
2026-04-22 16:03 30.26989 -9.57603 6834 ft 275 kts 248°
2026-04-22 16:03 30.26459 -9.59759 7656 ft 279 kts 251°
2026-04-22 16:03 30.25978 -9.61923 8503 ft 281 kts 252°
2026-04-22 16:04 30.25503 -9.64143 9342 ft 284 kts 252°
2026-04-22 16:04 30.25036 -9.66344 10137 ft 288 kts 252°
2026-04-22 16:04 30.24568 -9.68704 10392 ft 313 kts 258°
2026-04-22 16:04 30.24698 -9.71320 10696 ft 339 kts 282°
2026-04-22 16:05 30.25740 -9.73779 11300 ft 353 kts 304°
2026-04-22 16:05 30.27610 -9.75672 12012 ft 364 kts 328°
2026-04-22 16:05 30.30017 -9.76563 12722 ft 372 kts 351°
2026-04-22 16:05 30.32608 -9.76958 13447 ft 374 kts 346°
2026-04-22 16:06 30.35120 -9.77766 14105 ft 376 kts 343°
2026-04-22 16:06 30.37699 -9.78180 14713 ft 382 kts 358°
2026-04-22 16:06 30.40357 -9.77811 15318 ft 387 kts 10°
2026-04-22 16:06 30.43029 -9.77282 15950 ft 390 kts
2026-04-22 16:07 30.45738 -9.76946 16566 ft 392 kts
2026-04-22 16:07 30.48439 -9.76641 17182 ft 395 kts
2026-04-22 16:07 30.51201 -9.76348 17806 ft 398 kts
2026-04-22 16:07 30.53954 -9.76086 18383 ft 401 kts
2026-04-22 16:08 30.56752 -9.75843 18922 ft 404 kts
2026-04-22 16:08 30.59572 -9.75610 19484 ft 406 kts
2026-04-22 16:08 30.62401 -9.75378 20045 ft 408 kts
2026-04-22 16:08 30.65217 -9.75144 20616 ft 410 kts
2026-04-22 16:09 30.68056 -9.74905 21181 ft 412 kts
2026-04-22 16:09 30.70940 -9.74660 21726 ft 415 kts
2026-04-22 16:09 30.73823 -9.74411 22273 ft 417 kts
2026-04-22 16:09 30.76740 -9.74157 22802 ft 419 kts
2026-04-22 16:10 30.79627 -9.73905 23313 ft 421 kts
2026-04-22 16:10 30.82565 -9.73647 23766 ft 424 kts
2026-04-22 16:10 30.85524 -9.73389 24175 ft 426 kts
2026-04-22 16:10 30.88465 -9.73133 24570 ft 429 kts
2026-04-22 16:11 30.91465 -9.72872 24954 ft 431 kts
2026-04-22 16:11 30.94474 -9.72610 25346 ft 434 kts
2026-04-22 16:11 30.97467 -9.72349 25720 ft 436 kts
2026-04-22 16:11 31.00506 -9.72084 26094 ft 438 kts
2026-04-22 16:12 31.03564 -9.71820 26460 ft 441 kts
2026-04-22 16:12 31.06643 -9.71558 26841 ft 443 kts
2026-04-22 16:12 31.09687 -9.71299 27194 ft 445 kts
2026-04-22 16:12 31.12797 -9.71036 27570 ft 448 kts
2026-04-22 16:13 31.15920 -9.70770 27934 ft 450 kts
2026-04-22 16:13 31.19060 -9.70502 28302 ft 453 kts
2026-04-22 16:13 31.22185 -9.70233 28644 ft 455 kts
2026-04-22 16:13 31.25368 -9.69957 28994 ft 457 kts
2026-04-22 16:14 31.28522 -9.69687 29335 ft 459 kts
2026-04-22 16:14 31.31732 -9.69413 29671 ft 462 kts
2026-04-22 16:14 31.34910 -9.69141 29990 ft 464 kts
2026-04-22 16:14 31.38153 -9.68864 30259 ft 466 kts
2026-04-22 16:15 31.41390 -9.68335 30524 ft 472 kts
2026-04-22 16:15 31.44562 -9.67439 30789 ft 475 kts 10°
2026-04-22 16:15 31.47795 -9.66512 31052 ft 476 kts 10°
2026-04-22 16:15 31.50992 -9.65596 31344 ft 477 kts 10°
2026-04-22 16:16 31.54229 -9.64666 31730 ft 475 kts
2026-04-22 16:16 31.57462 -9.63736 32129 ft 474 kts
2026-04-22 16:16 31.60635 -9.62825 32494 ft 473 kts
2026-04-22 16:16 31.63830 -9.61905 32877 ft 472 kts
2026-04-22 16:17 31.67020 -9.60987 33254 ft 471 kts
2026-04-22 16:17 31.70169 -9.60081 33635 ft 470 kts
2026-04-22 16:17 31.73358 -9.59162 34009 ft 469 kts
2026-04-22 16:17 31.76534 -9.58247 34335 ft 468 kts
2026-04-22 16:18 31.79701 -9.57337 34657 ft 467 kts
2026-04-22 16:18 31.82837 -9.56435 34966 ft 466 kts
2026-04-22 16:18 31.85973 -9.55531 35254 ft 466 kts
2026-04-22 16:18 31.89134 -9.54617 35540 ft 465 kts
2026-04-22 16:19 31.92248 -9.53717 35811 ft 464 kts
2026-04-22 16:19 31.95398 -9.52807 35945 ft 464 kts
2026-04-22 16:19 32.01655 -9.50987 35964 ft 461 kts
2026-04-22 16:20 32.07873 -9.49184 35966 ft 460 kts
2026-04-22 16:20 32.14075 -9.47392 35964 ft 460 kts
2026-04-22 16:21 32.20307 -9.45582 35970 ft 460 kts
2026-04-22 16:21 32.26497 -9.43780 35966 ft 460 kts
2026-04-22 16:22 32.35801 -9.41066 35975 ft 460 kts
2026-04-22 16:23 32.45117 -9.38350 35984 ft 460 kts
2026-04-22 16:23 32.51304 -9.36539 35983 ft 459 kts
2026-04-22 16:24 32.60632 -9.33802 35988 ft 459 kts
2026-04-22 16:25 32.66804 -9.31990 35985 ft 458 kts
2026-04-22 16:25 32.76088 -9.29261 35985 ft 458 kts
2026-04-22 16:26 32.82254 -9.27442 35989 ft 458 kts
2026-04-22 16:26 32.88458 -9.25612 35989 ft 458 kts
2026-04-22 16:27 32.94616 -9.23786 35996 ft 457 kts
2026-04-22 16:27 33.00779 -9.21959 35995 ft 457 kts
2026-04-22 16:28 33.06948 -9.20131 35996 ft 456 kts
2026-04-22 16:28 33.13100 -9.18309 35995 ft 456 kts
2026-04-22 16:29 33.19249 -9.16477 36000 ft 455 kts 10°
2026-04-22 16:29 33.25423 -9.14652 35998 ft 455 kts
2026-04-22 16:30 33.31546 -9.12845 35992 ft 454 kts 10°
2026-04-22 16:30 33.37651 -9.11026 35997 ft 454 kts 10°
2026-04-22 16:31 33.43766 -9.09209 36003 ft 453 kts 10°
2026-04-22 16:31 33.49907 -9.07385 36000 ft 453 kts 10°
2026-04-22 16:32 33.55995 -9.05573 36000 ft 452 kts 10°
2026-04-22 16:32 33.62120 -9.03747 35995 ft 452 kts 10°
2026-04-22 16:33 33.68214 -9.01921 36001 ft 452 kts 10°
2026-04-22 16:33 33.74287 -9.00099 35999 ft 452 kts 10°
2026-04-22 16:34 33.80388 -8.98272 36000 ft 451 kts 10°
2026-04-22 16:34 33.86476 -8.96452 35996 ft 451 kts 10°
2026-04-22 16:35 33.92580 -8.94620 36002 ft 451 kts 10°
2026-04-22 16:35 33.98645 -8.92790 36001 ft 451 kts 10°
2026-04-22 16:36 34.04749 -8.90953 36008 ft 450 kts 10°
2026-04-22 16:36 34.10782 -8.89133 36005 ft 450 kts 10°
2026-04-22 16:37 34.16862 -8.87297 36016 ft 449 kts 10°
2026-04-22 16:37 34.22904 -8.85465 36002 ft 448 kts 10°
2026-04-22 16:38 34.28973 -8.83616 36004 ft 448 kts 11°
2026-04-22 16:38 34.34986 -8.81784 36002 ft 447 kts 10°
2026-04-22 16:39 34.41036 -8.79949 36005 ft 447 kts 10°
2026-04-22 16:39 34.47054 -8.78125 36002 ft 447 kts 11°
2026-04-22 16:40 34.53068 -8.76288 36010 ft 447 kts 11°
2026-04-22 16:41 34.62106 -8.73503 36005 ft 447 kts 11°
2026-04-22 16:41 34.68121 -8.71651 36010 ft 447 kts 11°
2026-04-22 16:42 34.74165 -8.69786 36003 ft 446 kts 11°
2026-04-22 16:42 34.80165 -8.67929 36008 ft 446 kts 11°
2026-04-22 16:43 34.86161 -8.66083 36005 ft 446 kts 11°
2026-04-22 16:43 34.92197 -8.64217 36011 ft 446 kts 11°
2026-04-22 16:44 34.98196 -8.62356 36007 ft 446 kts 11°
2026-04-22 16:44 35.04200 -8.60497 36011 ft 446 kts 11°
2026-04-22 16:45 35.10224 -8.58625 36006 ft 445 kts 11°
2026-04-22 16:45 35.16223 -8.56755 36012 ft 445 kts 11°
2026-04-22 16:46 35.22238 -8.54875 36013 ft 445 kts 11°
2026-04-22 16:46 35.28224 -8.53008 36016 ft 445 kts 10°
2026-04-22 16:47 35.34233 -8.51130 36012 ft 445 kts 11°
2026-04-22 16:47 35.39235 -8.49558 36018 ft 445 kts 11°
2026-04-22 16:48 35.45209 -8.47685 36014 ft 445 kts 11°
2026-04-22 16:48 35.52189 -8.45491 36021 ft 445 kts 11°
2026-04-22 16:49 35.57180 -8.43921 36019 ft 444 kts 10°
2026-04-22 16:49 35.63184 -8.42031 36025 ft 444 kts 11°
2026-04-22 16:50 35.69165 -8.40141 36021 ft 444 kts 10°
2026-04-22 16:50 35.75118 -8.38264 36024 ft 443 kts 10°
2026-04-22 16:51 35.81098 -8.36370 36008 ft 443 kts 10°
2026-04-22 16:51 35.87063 -8.34471 36020 ft 443 kts 11°
2026-04-22 16:52 35.93020 -8.32569 36016 ft 443 kts 10°
2026-04-22 16:52 35.99016 -8.30657 36022 ft 444 kts 10°
2026-04-22 16:53 36.04982 -8.28743 36018 ft 444 kts 11°
2026-04-22 16:53 36.10943 -8.26822 36022 ft 444 kts 10°
2026-04-22 16:54 36.16939 -8.24887 36011 ft 445 kts 10°
2026-04-22 16:54 36.22914 -8.22961 36010 ft 445 kts 10°
2026-04-22 16:55 36.28903 -8.21026 36003 ft 446 kts 10°
2026-04-22 16:55 36.34925 -8.19078 36010 ft 446 kts 10°
2026-04-22 16:56 36.40919 -8.17144 36003 ft 446 kts 10°
2026-04-22 16:56 36.46944 -8.15184 36008 ft 447 kts 10°
2026-04-22 16:57 36.52946 -8.13220 36004 ft 447 kts 10°
2026-04-22 16:57 36.58939 -8.11266 36006 ft 447 kts 10°
2026-04-22 16:58 36.64990 -8.09297 36003 ft 448 kts 10°
2026-04-22 16:58 36.70988 -8.07347 36008 ft 448 kts 10°
2026-04-22 16:59 36.77044 -8.05368 36008 ft 449 kts 10°
2026-04-22 16:59 36.83065 -8.03385 36008 ft 449 kts 10°
2026-04-22 17:00 36.89118 -8.01397 36006 ft 449 kts 10°
2026-04-22 17:00 36.98193 -7.98410 36003 ft 450 kts 10°
2026-04-22 17:01 37.04239 -7.96415 36004 ft 451 kts 10°
2026-04-22 17:01 37.10335 -7.94402 36004 ft 453 kts 10°
2026-04-22 17:02 37.16403 -7.92395 35996 ft 454 kts 10°
2026-04-22 17:02 37.22537 -7.90357 35992 ft 454 kts 11°
2026-04-22 17:03 37.28640 -7.88334 35977 ft 455 kts 10°
2026-04-22 17:03 37.34748 -7.86310 35966 ft 456 kts 10°
2026-04-22 17:04 37.40869 -7.84277 35953 ft 456 kts 11°
2026-04-22 17:04 37.47024 -7.82218 35961 ft 457 kts 11°
2026-04-22 17:05 37.53158 -7.80167 35946 ft 458 kts 11°
2026-04-22 17:05 37.59344 -7.78099 35953 ft 459 kts 11°
2026-04-22 17:06 37.65477 -7.76040 35947 ft 460 kts 11°
2026-04-22 17:06 37.71676 -7.73947 35954 ft 461 kts 11°
2026-04-22 17:07 37.77869 -7.71863 35945 ft 462 kts 11°
2026-04-22 17:07 37.84065 -7.69783 35953 ft 463 kts 11°
2026-04-22 17:08 37.90292 -7.67680 35945 ft 464 kts 11°
2026-04-22 17:08 37.96550 -7.65561 35949 ft 465 kts 11°
2026-04-22 17:09 38.02791 -7.63439 35948 ft 465 kts 11°
2026-04-22 17:09 38.09033 -7.61323 35947 ft 466 kts 11°
2026-04-22 17:10 38.15300 -7.59203 35936 ft 467 kts 11°
2026-04-22 17:10 38.21563 -7.57076 35945 ft 468 kts 11°
2026-04-22 17:11 38.27884 -7.54908 35944 ft 468 kts 11°
2026-04-22 17:11 38.34153 -7.52758 35949 ft 469 kts 11°
2026-04-22 17:12 38.40456 -7.50605 35938 ft 469 kts 11°
2026-04-22 17:12 38.46753 -7.48438 35940 ft 470 kts 11°
2026-04-22 17:13 38.53098 -7.46257 35935 ft 471 kts 11°
2026-04-22 17:13 38.59420 -7.44086 35943 ft 472 kts 12°
2026-04-22 17:14 38.65733 -7.41907 35939 ft 472 kts 12°
2026-04-22 17:14 38.72110 -7.39704 35945 ft 473 kts 12°
2026-04-22 17:15 38.78454 -7.37505 35944 ft 473 kts 12°
2026-04-22 17:15 38.84786 -7.35309 35951 ft 474 kts 12°
2026-04-22 17:16 38.91146 -7.33093 35950 ft 474 kts 12°
2026-04-22 17:16 38.97525 -7.30875 35955 ft 474 kts 12°
2026-04-22 17:17 39.03881 -7.28666 35948 ft 474 kts 12°
2026-04-22 17:17 39.10237 -7.26443 35952 ft 475 kts 12°
2026-04-22 17:18 39.16617 -7.24209 35951 ft 475 kts 12°
2026-04-22 17:18 39.22920 -7.21652 35955 ft 479 kts 22°
2026-04-22 17:19 39.34822 -7.13816 35964 ft 481 kts 25°
2026-04-22 17:20 39.46726 -7.05916 35958 ft 481 kts 25°
2026-04-22 17:21 39.55647 -6.99964 35956 ft 481 kts 25°
2026-04-22 17:22 39.64555 -6.94016 35951 ft 480 kts 25°
2026-04-22 17:23 39.73457 -6.88063 35957 ft 480 kts 25°
2026-04-22 17:23 39.82340 -6.82078 35967 ft 480 kts 25°
2026-04-22 17:24 39.88273 -6.78076 35965 ft 479 kts 25°
2026-04-22 17:24 39.94190 -6.74087 35990 ft 481 kts 25°
2026-04-22 17:25 39.97135 -6.72099 36241 ft 481 kts 25°
2026-04-22 17:25 40.00121 -6.70082 36541 ft 481 kts 25°
2026-04-22 17:25 40.03095 -6.68068 36846 ft 480 kts 26°
2026-04-22 17:25 40.06016 -6.66083 37143 ft 479 kts 26°
2026-04-22 17:26 40.08981 -6.64064 37445 ft 477 kts 26°
2026-04-22 17:26 40.11936 -6.62052 37728 ft 476 kts 26°
2026-04-22 17:26 40.14849 -6.60072 37937 ft 476 kts 26°
2026-04-22 17:26 40.17798 -6.58065 37983 ft 475 kts 26°
2026-04-22 17:27 40.23648 -6.54080 37977 ft 474 kts 26°
2026-04-22 17:27 40.29487 -6.50090 37981 ft 474 kts 26°
2026-04-22 17:28 40.35350 -6.46071 37980 ft 474 kts 26°
2026-04-22 17:28 40.41181 -6.42064 37979 ft 474 kts 26°
2026-04-22 17:29 40.46993 -6.38067 37975 ft 474 kts 26°
2026-04-22 17:29 40.52864 -6.34032 37982 ft 474 kts 26°
2026-04-22 17:30 40.58697 -6.30010 37984 ft 474 kts 26°
2026-04-22 17:30 40.64542 -6.25977 37992 ft 474 kts 26°
2026-04-22 17:31 40.70378 -6.21941 37983 ft 475 kts 26°
2026-04-22 17:31 40.76202 -6.17915 37789 ft 472 kts 25°
2026-04-22 17:32 40.79105 -6.15905 37982 ft 468 kts 25°
2026-04-22 17:32 40.82008 -6.13893 38005 ft 469 kts 25°
2026-04-22 17:32 40.87762 -6.09897 38008 ft 468 kts 25°
2026-04-22 17:33 40.93495 -6.05899 38009 ft 467 kts 26°
2026-04-22 17:33 40.99224 -6.01898 38005 ft 466 kts 25°
2026-04-22 17:34 41.04969 -5.97886 38010 ft 465 kts 25°
2026-04-22 17:34 41.10674 -5.93887 38006 ft 465 kts 26°
2026-04-22 17:35 41.16381 -5.89880 38015 ft 465 kts 25°
2026-04-22 17:35 41.22094 -5.85871 38009 ft 464 kts 25°
2026-04-22 17:36 41.27801 -5.81857 38015 ft 464 kts 26°
2026-04-22 17:36 41.33532 -5.77803 38013 ft 464 kts 26°
2026-04-22 17:37 41.39217 -5.73773 38013 ft 464 kts 26°
2026-04-22 17:37 41.44884 -5.69749 38013 ft 464 kts 26°
2026-04-22 17:38 41.50591 -5.65693 38018 ft 464 kts 26°
2026-04-22 17:38 41.56408 -5.62055 38020 ft 462 kts 20°
2026-04-22 17:39 41.62312 -5.58735 38022 ft 462 kts 20°
2026-04-22 17:40 41.71184 -5.53729 38023 ft 461 kts 20°
2026-04-22 17:40 41.77082 -5.50399 38030 ft 461 kts 20°
2026-04-22 17:41 41.83023 -5.47034 38030 ft 461 kts 20°